^^
Datos históricos de la estación: Murcia-Puente Tocinos
Diario Informe para Octubre 24, 2019 Unidades:  Métrico    Inglés   Ambas
Diario Semanal Mensual Anual Configurable
  Máximo: Mínimo: Media:
Temperatura: 21.1 °C 11.7 °C 16.6 °C
Punto de rocio: 9.8 °C 7.1 °C 8.5 °C
Humedad: 81% 41% 60%
Velocidad viento: 16.1km/h 3.2km/h 8.5km/h
Racha viento: 37.0km/h - -
Viento- - SW
Presión: 1021.2 hPa 1010.7 hPa -
Precipitación: 0.0 mm    
Historical Graphs
 
 
Tabla de datos para Octubre 24, 2019
Hora Temperatura Punto de rocio Presión Viento Velocidad viento Racha viento Humedad Intensidad lluvia(por hora) Nubes
00:00 14.7 °C 9.1 °C 1010.7 hPa SW 8.0 km/h 12.9 km/h 69% 0.0 mm FEW
00:05 14.7 °C 8.8 °C 1010.7 hPa SW 8.0 km/h 11.3 km/h 68% 0.0 mm CLR
00:10 14.8 °C 8.9 °C 1010.7 hPa SW 8.0 km/h 11.3 km/h 68% 0.0 mm CLR
00:15 14.8 °C 8.7 °C 1010.7 hPa WSW 8.0 km/h 9.7 km/h 67% 0.0 mm CLR
00:20 14.9 °C 8.6 °C 1010.7 hPa WSW 8.0 km/h 14.5 km/h 66% 0.0 mm CLR
00:25 14.9 °C 8.6 °C 1010.9 hPa SW 8.0 km/h 12.9 km/h 66% 0.0 mm CLR
00:30 14.9 °C 8.6 °C 1010.9 hPa SW 8.0 km/h 14.5 km/h 66% 0.0 mm CLR
00:35 14.9 °C 8.6 °C 1010.9 hPa SSW 8.0 km/h 14.5 km/h 66% 0.0 mm CLR
00:40 14.9 °C 8.8 °C 1010.8 hPa South 8.0 km/h 12.9 km/h 67% 0.0 mm CLR
00:45 14.8 °C 8.9 °C 1010.8 hPa South 8.0 km/h 9.7 km/h 68% 0.0 mm CLR
00:50 14.7 °C 8.8 °C 1010.8 hPa SSW 6.9 km/h 7.4 km/h 68% 0.0 mm CLR
00:55 14.7 °C 8.8 °C 1010.7 hPa SSW 8.0 km/h 9.7 km/h 68% 0.0 mm CLR
01:00 14.6 °C 9.0 °C 1010.7 hPa SSW 8.0 km/h 6.4 km/h 69% 0.0 mm FEW
01:05 14.6 °C 9.0 °C 1010.7 hPa South 3.2 km/h 8.0 km/h 69% 0.0 mm CLR
01:10 14.4 °C 9.4 °C 1010.9 hPa SSE 3.2 km/h 8.0 km/h 72% 0.0 mm CLR
01:15 14.2 °C 9.4 °C 1010.9 hPa SE 3.2 km/h 8.0 km/h 73% 0.0 mm CLR
01:20 14.1 °C 9.5 °C 1010.9 hPa SSE 3.2 km/h 9.7 km/h 74% 0.0 mm CLR
01:25 13.9 °C 9.3 °C 1010.8 hPa SSE 4.8 km/h 8.0 km/h 74% 0.0 mm CLR
01:30 13.9 °C 9.3 °C 1010.8 hPa South 4.8 km/h 8.0 km/h 74% 0.0 mm CLR
01:35 13.9 °C 9.3 °C 1010.8 hPa South 4.8 km/h 8.0 km/h 74% 0.0 mm CLR
01:40 13.9 °C 9.3 °C 1010.8 hPa South 4.8 km/h 8.0 km/h 74% 0.0 mm CLR
01:45 14.0 °C 9.4 °C 1010.8 hPa South 3.2 km/h 8.0 km/h 74% 0.0 mm CLR
01:50 14.0 °C 9.2 °C 1010.8 hPa South 3.2 km/h 8.0 km/h 73% 0.0 mm CLR
01:55 14.1 °C 9.3 °C 1010.8 hPa South 3.2 km/h 4.8 km/h 73% 0.0 mm CLR
02:00 14.1 °C 9.6 °C 1010.8 hPa South 3.2 km/h 6.4 km/h 74% 0.0 mm FEW
02:05 14.1 °C 9.3 °C 1010.8 hPa South 3.2 km/h 8.0 km/h 73% 0.0 mm CLR
02:10 14.1 °C 9.3 °C 1010.8 hPa South 3.2 km/h 8.0 km/h 73% 0.0 mm CLR
02:15 14.1 °C 9.1 °C 1010.8 hPa SSW 3.2 km/h 8.0 km/h 72% 0.0 mm CLR
02:20 14.2 °C 9.4 °C 1010.8 hPa SW 3.2 km/h 8.0 km/h 73% 0.0 mm CLR
02:25 14.1 °C 9.1 °C 1010.9 hPa SW 3.2 km/h 8.0 km/h 72% 0.0 mm CLR
02:30 14.1 °C 9.1 °C 1010.9 hPa SSW 3.2 km/h 9.7 km/h 72% 0.0 mm CLR
02:35 14.1 °C 9.1 °C 1010.9 hPa SSW 4.8 km/h 8.0 km/h 72% 0.0 mm CLR
02:40 14.1 °C 9.1 °C 1011.0 hPa South 4.8 km/h 8.0 km/h 72% 0.0 mm CLR
02:45 14.0 °C 9.1 °C 1011.0 hPa South 3.2 km/h 9.7 km/h 72% 0.0 mm CLR
02:50 13.9 °C 9.1 °C 1011.0 hPa South 3.2 km/h 9.7 km/h 73% 0.0 mm CLR
02:55 13.8 °C 9.1 °C 1011.2 hPa SSW 8.0 km/h 9.7 km/h 73% 0.0 mm CLR
03:00 13.8 °C 8.8 °C 1011.2 hPa SSW 8.0 km/h 9.7 km/h 72% 0.0 mm FEW
03:05 13.8 °C 8.8 °C 1011.2 hPa SSW 8.0 km/h 9.7 km/h 72% 0.0 mm CLR
03:10 13.9 °C 8.9 °C 1011.4 hPa SSW 8.0 km/h 9.7 km/h 72% 0.0 mm CLR
03:15 13.8 °C 8.8 °C 1011.4 hPa SSW 4.8 km/h 8.0 km/h 72% 0.0 mm CLR
03:20 13.8 °C 8.8 °C 1011.4 hPa SSW 4.8 km/h 8.0 km/h 72% 0.0 mm CLR
03:25 13.8 °C 8.8 °C 1011.5 hPa SW 4.8 km/h 9.7 km/h 72% 0.0 mm CLR
03:30 13.8 °C 8.8 °C 1011.5 hPa SSW 4.8 km/h 9.7 km/h 72% 0.0 mm CLR
03:35 13.7 °C 8.7 °C 1011.5 hPa SSW 8.0 km/h 11.3 km/h 72% 0.0 mm CLR
03:40 13.7 °C 8.7 °C 1011.7 hPa SSW 8.0 km/h 11.3 km/h 72% 0.0 mm CLR
03:45 13.6 °C 8.7 °C 1011.7 hPa SSW 8.0 km/h 11.3 km/h 72% 0.0 mm CLR
03:50 13.6 °C 8.7 °C 1011.7 hPa SSW 8.0 km/h 14.5 km/h 72% 0.0 mm CLR
03:55 13.5 °C 8.6 °C 1011.6 hPa SSW 8.0 km/h 12.9 km/h 72% 0.0 mm CLR
04:00 13.6 °C 8.4 °C 1011.6 hPa SSW 8.0 km/h 14.5 km/h 71% 0.0 mm FEW
04:05 13.7 °C 8.3 °C 1011.6 hPa SW 8.0 km/h 14.5 km/h 70% 0.0 mm CLR
04:10 13.7 °C 8.3 °C 1011.7 hPa SW 8.0 km/h 14.5 km/h 70% 0.0 mm CLR
04:15 13.7 °C 8.3 °C 1011.7 hPa SW 8.0 km/h 12.9 km/h 70% 0.0 mm CLR
04:20 13.6 °C 8.2 °C 1011.7 hPa SW 8.0 km/h 11.3 km/h 70% 0.0 mm CLR
04:25 13.6 °C 8.2 °C 1011.6 hPa SSW 8.0 km/h 12.9 km/h 70% 0.0 mm CLR
04:30 13.5 °C 8.3 °C 1011.6 hPa SSW 8.0 km/h 16.1 km/h 71% 0.0 mm CLR
04:35 13.4 °C 8.4 °C 1011.6 hPa SSW 9.7 km/h 14.5 km/h 72% 0.0 mm CLR
04:40 13.2 °C 8.4 °C 1011.9 hPa SSW 9.5 km/h 13.0 km/h 73% 0.0 mm CLR
04:45 13.2 °C 8.4 °C 1011.9 hPa SSW 8.0 km/h 12.9 km/h 73% 0.0 mm CLR
04:50 13.2 °C 8.3 °C 1011.9 hPa SSW 8.0 km/h 12.9 km/h 72% 0.0 mm CLR
04:55 13.2 °C 8.3 °C 1012.0 hPa SSW 8.4 km/h 14.8 km/h 72% 0.0 mm CLR
05:00 13.3 °C 8.2 °C 1012.0 hPa SSW 8.0 km/h 14.5 km/h 71% 0.0 mm FEW
05:05 13.3 °C 8.3 °C 1012.0 hPa SSW 9.7 km/h 11.3 km/h 72% 0.0 mm CLR
05:10 13.2 °C 8.3 °C 1012.1 hPa SW 9.7 km/h 14.5 km/h 72% 0.0 mm CLR
05:15 13.1 °C 8.4 °C 1012.1 hPa SW 8.0 km/h 11.3 km/h 73% 0.0 mm CLR
05:20 13.0 °C 8.3 °C 1012.1 hPa SW 8.0 km/h 11.3 km/h 73% 0.0 mm CLR
05:25 12.9 °C 8.4 °C 1012.1 hPa SW 8.0 km/h 9.7 km/h 74% 0.0 mm CLR
05:30 12.8 °C 8.3 °C 1012.1 hPa SSW 8.0 km/h 9.7 km/h 74% 0.0 mm CLR
05:35 12.8 °C 8.3 °C 1012.1 hPa SSW 4.8 km/h 12.9 km/h 74% 0.0 mm CLR
05:40 12.8 °C 8.3 °C 1012.3 hPa SSW 4.8 km/h 12.9 km/h 74% 0.0 mm CLR
05:45 12.8 °C 8.5 °C 1012.3 hPa SSW 8.4 km/h 9.3 km/h 75% 0.0 mm CLR
05:50 12.8 °C 8.5 °C 1012.3 hPa SW 8.0 km/h 9.7 km/h 75% 0.0 mm FEW
05:55 12.8 °C 8.5 °C 1012.2 hPa SW 8.0 km/h 9.7 km/h 75% 0.0 mm FEW
06:00 12.8 °C 8.5 °C 1012.2 hPa SW 8.0 km/h 9.7 km/h 75% 0.0 mm FEW
06:05 12.8 °C 8.5 °C 1012.2 hPa SSW 4.8 km/h 9.7 km/h 75% 0.0 mm FEW
06:10 12.9 °C 8.6 °C 1012.2 hPa SSW 4.8 km/h 11.3 km/h 75% 0.0 mm FEW
06:15 12.9 °C 8.6 °C 1012.2 hPa SSW 8.0 km/h 11.3 km/h 75% 0.0 mm FEW
06:20 12.9 °C 8.6 °C 1012.2 hPa SSW 8.0 km/h 9.7 km/h 75% 0.0 mm FEW
06:25 12.9 °C 8.6 °C 1012.4 hPa SSW 4.8 km/h 12.9 km/h 75% 0.0 mm FEW
06:30 12.9 °C 8.6 °C 1012.4 hPa SSW 4.8 km/h 11.3 km/h 75% 0.0 mm FEW
06:35 12.9 °C 8.6 °C 1012.4 hPa SSW 8.0 km/h 12.9 km/h 75% 0.0 mm FEW
06:40 12.9 °C 8.6 °C 1012.6 hPa SSW 8.0 km/h 14.5 km/h 75% 0.0 mm FEW
06:45 12.9 °C 8.6 °C 1012.6 hPa SSW 9.7 km/h 16.1 km/h 75% 0.0 mm FEW
06:50 12.8 °C 8.5 °C 1012.6 hPa SW 9.7 km/h 16.1 km/h 75% 0.0 mm CLR
06:55 12.7 °C 8.6 °C 1013.0 hPa WSW 9.7 km/h 11.3 km/h 76% 0.0 mm CLR
07:00 12.6 °C 8.7 °C 1013.0 hPa WSW 9.7 km/h 14.5 km/h 77% 0.0 mm FEW
07:05 12.5 °C 8.6 °C 1013.0 hPa SW 8.0 km/h 14.5 km/h 77% 0.0 mm CLR
07:10 12.4 °C 8.7 °C 1013.1 hPa SW 8.0 km/h 12.9 km/h 78% 0.0 mm CLR
07:15 12.3 °C 8.6 °C 1013.1 hPa SSW 9.7 km/h 16.1 km/h 78% 0.0 mm CLR
07:20 12.2 °C 8.5 °C 1013.1 hPa SSW 9.7 km/h 16.1 km/h 78% 0.0 mm CLR
07:25 12.2 °C 8.5 °C 1013.2 hPa SSW 9.7 km/h 19.3 km/h 78% 0.0 mm CLR
07:30 12.2 °C 8.7 °C 1013.2 hPa SSW 9.7 km/h 19.3 km/h 79% 0.0 mm CLR
07:35 12.2 °C 8.7 °C 1013.2 hPa SW 9.7 km/h 16.1 km/h 79% 0.0 mm CLR
07:40 12.2 °C 8.7 °C 1013.4 hPa SW 9.7 km/h 11.3 km/h 79% 0.0 mm CLR
07:45 12.2 °C 8.5 °C 1013.4 hPa SW 8.0 km/h 14.5 km/h 78% 0.0 mm CLR
07:50 12.2 °C 8.5 °C 1013.4 hPa SW 8.0 km/h 12.9 km/h 78% 0.0 mm CLR
07:55 12.2 °C 8.5 °C 1013.7 hPa WSW 8.0 km/h 12.9 km/h 78% 0.0 mm CLR
08:00 12.2 °C 8.5 °C 1013.7 hPa WSW 8.0 km/h 14.5 km/h 78% 0.0 mm FEW
08:05 12.1 °C 8.6 °C 1013.7 hPa WSW 4.8 km/h 9.7 km/h 79% 0.0 mm CLR
08:10 12.2 °C 8.7 °C 1013.9 hPa SW 4.8 km/h 8.0 km/h 79% 0.0 mm CLR
08:15 12.2 °C 8.7 °C 1013.9 hPa SSW 3.2 km/h 11.3 km/h 79% 0.0 mm CLR
08:20 12.1 °C 8.6 °C 1013.9 hPa South 3.2 km/h 11.3 km/h 79% 0.0 mm CLR
08:25 11.9 °C 8.6 °C 1014.0 hPa SSE 8.0 km/h 12.9 km/h 80% 0.0 mm CLR
08:30 11.7 °C 8.6 °C 1014.0 hPa SSE 8.0 km/h 14.5 km/h 81% 0.0 mm CLR
08:35 11.7 °C 8.6 °C 1014.0 hPa SSE 9.7 km/h 14.5 km/h 81% 0.0 mm CLR
08:40 11.8 °C 8.7 °C 1014.3 hPa SSE 9.7 km/h 14.5 km/h 81% 0.0 mm CLR
08:45 11.8 °C 8.7 °C 1014.3 hPa SSE 9.7 km/h 11.3 km/h 81% 0.0 mm CLR
08:50 11.9 °C 8.6 °C 1014.3 hPa SSE 9.7 km/h 9.7 km/h 80% 0.0 mm FEW
08:55 12.1 °C 8.8 °C 1014.4 hPa SSE 8.0 km/h 9.7 km/h 80% 0.0 mm FEW
09:00 12.3 °C 8.7 °C 1014.4 hPa SSE 8.0 km/h 9.7 km/h 79% 0.0 mm FEW
09:05 12.4 °C 8.8 °C 1014.4 hPa SSE 8.0 km/h 9.7 km/h 79% 0.0 mm FEW
09:10 12.6 °C 8.9 °C 1014.8 hPa SE 8.0 km/h 9.7 km/h 78% 0.0 mm FEW
09:15 12.7 °C 8.9 °C 1014.8 hPa SE 4.8 km/h 9.7 km/h 78% 0.0 mm FEW
09:20 12.7 °C 8.9 °C 1014.8 hPa SE 4.8 km/h 11.3 km/h 78% 0.0 mm FEW
09:25 12.7 °C 9.0 °C 1015.0 hPa SE 8.0 km/h 11.3 km/h 78% 0.0 mm FEW
09:30 12.9 °C 9.1 °C 1015.0 hPa SSE 8.0 km/h 12.9 km/h 78% 0.0 mm FEW
09:35 13.1 °C 8.9 °C 1015.0 hPa SSE 8.0 km/h 14.5 km/h 76% 0.0 mm FEW
09:40 13.4 °C 9.1 °C 1015.3 hPa SSE 8.0 km/h 11.3 km/h 75% 0.0 mm FEW
09:45 13.7 °C 9.2 °C 1015.3 hPa South 8.0 km/h 11.3 km/h 74% 0.0 mm FEW
09:50 14.1 °C 9.3 °C 1015.3 hPa SSE 8.0 km/h 9.7 km/h 73% 0.0 mm CLR
09:55 14.4 °C 9.4 °C 1015.4 hPa SSE 5.0 km/h 9.3 km/h 72% 0.0 mm CLR
10:00 14.7 °C 9.2 °C 1015.4 hPa South 4.8 km/h 11.3 km/h 70% 0.0 mm FEW
10:05 14.9 °C 9.3 °C 1015.4 hPa SSW 8.0 km/h 12.9 km/h 69% 0.0 mm CLR
10:10 15.2 °C 9.3 °C 1015.7 hPa SSW 8.0 km/h 11.3 km/h 68% 0.0 mm CLR
10:15 15.3 °C 9.2 °C 1015.7 hPa South 8.0 km/h 12.9 km/h 67% 0.0 mm CLR
10:20 15.6 °C 9.3 °C 1015.7 hPa South 8.0 km/h 11.3 km/h 66% 0.0 mm CLR
10:25 15.7 °C 9.4 °C 1016.0 hPa SSE 8.0 km/h 12.9 km/h 66% 0.0 mm CLR
10:30 15.9 °C 9.6 °C 1016.0 hPa SSE 8.0 km/h 9.7 km/h 66% 0.0 mm CLR
10:35 16.1 °C 9.5 °C 1016.0 hPa South 4.8 km/h 11.3 km/h 65% 0.0 mm CLR
10:40 16.2 °C 9.6 °C 1016.3 hPa South 4.8 km/h 11.3 km/h 65% 0.0 mm CLR
10:45 16.3 °C 9.5 °C 1016.3 hPa South 4.8 km/h 9.7 km/h 64% 0.0 mm CLR
10:50 16.4 °C 9.6 °C 1016.3 hPa South 4.8 km/h 11.3 km/h 64% 0.0 mm CLR
10:55 16.7 °C 9.8 °C 1016.5 hPa South 8.0 km/h 9.7 km/h 64% 0.0 mm CLR
11:00 16.8 °C 9.7 °C 1016.5 hPa South 8.0 km/h 8.0 km/h 63% 0.0 mm FEW
11:05 17.1 °C 9.7 °C 1016.5 hPa South 3.2 km/h 9.7 km/h 62% 0.0 mm CLR
11:10 17.2 °C 9.6 °C 1016.7 hPa South 3.2 km/h 14.5 km/h 61% 0.0 mm CLR
11:15 17.3 °C 9.7 °C 1016.7 hPa SW 4.8 km/h 12.9 km/h 61% 0.0 mm CLR
11:20 17.4 °C 9.6 °C 1016.7 hPa WSW 4.8 km/h 12.9 km/h 60% 0.0 mm CLR
11:25 17.6 °C 9.5 °C 1016.6 hPa West 4.8 km/h 20.9 km/h 59% 0.0 mm CLR
11:30 17.7 °C 9.6 °C 1016.6 hPa West 4.8 km/h 16.1 km/h 59% 0.0 mm CLR
11:35 17.8 °C 9.4 °C 1016.6 hPa West 8.0 km/h 16.1 km/h 58% 0.0 mm CLR
11:40 17.9 °C 9.0 °C 1016.7 hPa West 8.0 km/h 27.4 km/h 56% 0.0 mm CLR
11:45 17.9 °C 9.0 °C 1016.7 hPa West 12.9 km/h 27.4 km/h 56% 0.0 mm CLR
11:50 18.1 °C 9.2 °C 1016.7 hPa WNW 12.9 km/h 25.7 km/h 56% 0.0 mm FEW
11:55 18.2 °C 9.0 °C 1016.7 hPa WNW 12.9 km/h 32.2 km/h 55% 0.0 mm FEW
12:00 17.9 °C 8.8 °C 1016.7 hPa WNW 12.9 km/h 37.0 km/h 55% 0.0 mm FEW
12:05 17.8 °C 8.9 °C 1016.7 hPa WNW 16.1 km/h 27.4 km/h 56% 0.0 mm FEW
12:10 17.8 °C 8.9 °C 1016.9 hPa WNW 16.1 km/h 27.4 km/h 56% 0.0 mm FEW
12:15 18.1 °C 8.9 °C 1016.9 hPa WNW 11.3 km/h 22.5 km/h 55% 0.0 mm FEW
12:20 18.4 °C 9.2 °C 1016.9 hPa WNW 11.3 km/h 29.0 km/h 55% 0.0 mm FEW
12:25 18.6 °C 9.1 °C 1017.0 hPa West 14.5 km/h 25.7 km/h 54% 0.0 mm FEW
12:30 18.8 °C 9.0 °C 1017.0 hPa West 14.5 km/h 30.6 km/h 53% 0.0 mm FEW
12:35 18.7 °C 9.2 °C 1017.0 hPa West 16.1 km/h 29.0 km/h 54% 0.0 mm FEW
12:40 18.7 °C 9.2 °C 1017.0 hPa WNW 16.1 km/h 27.4 km/h 54% 0.0 mm FEW
12:45 18.4 °C 9.2 °C 1017.0 hPa WNW 14.5 km/h 22.5 km/h 55% 0.0 mm FEW
12:50 18.3 °C 9.4 °C 1017.0 hPa WNW 14.5 km/h 22.5 km/h 56% 0.0 mm FEW
12:55 18.2 °C 9.6 °C 1017.0 hPa WNW 12.9 km/h 24.1 km/h 57% 0.0 mm FEW
13:00 18.3 °C 9.4 °C 1017.0 hPa WNW 12.9 km/h 22.5 km/h 56% 0.0 mm SCT
13:05 18.4 °C 9.2 °C 1017.0 hPa WNW 12.9 km/h 24.1 km/h 55% 0.0 mm FEW
13:10 18.5 °C 9.0 °C 1017.0 hPa WNW 13.0 km/h 22.2 km/h 54% 0.0 mm FEW
13:15 18.6 °C 9.1 °C 1017.0 hPa WNW 14.5 km/h 20.9 km/h 54% 0.0 mm FEW
13:20 18.7 °C 8.9 °C 1017.0 hPa WNW 14.5 km/h 19.3 km/h 53% 0.0 mm FEW
13:25 18.6 °C 8.8 °C 1016.9 hPa West 12.9 km/h 22.5 km/h 53% 0.0 mm FEW
13:30 18.6 °C 8.8 °C 1016.9 hPa West 12.9 km/h 19.3 km/h 53% 0.0 mm FEW
13:35 18.6 °C 8.8 °C 1016.9 hPa West 11.3 km/h 22.5 km/h 53% 0.0 mm FEW
13:40 18.6 °C 9.1 °C 1016.8 hPa West 11.3 km/h 17.7 km/h 54% 0.0 mm FEW
13:45 18.7 °C 9.2 °C 1016.8 hPa WNW 11.3 km/h 16.1 km/h 54% 0.0 mm FEW
13:50 18.7 °C 8.9 °C 1016.8 hPa WNW 11.3 km/h 22.5 km/h 53% 0.0 mm SCT
13:55 18.8 °C 9.0 °C 1016.6 hPa WNW 11.3 km/h 22.5 km/h 53% 0.0 mm SCT
14:00 18.9 °C 8.5 °C 1016.6 hPa WNW 11.3 km/h 25.7 km/h 51% 0.0 mm BKN
14:05 18.9 °C 8.6 °C 1016.6 hPa WNW 12.9 km/h 22.5 km/h 51% 0.0 mm SCT
14:10 18.8 °C 8.4 °C 1016.8 hPa WNW 12.9 km/h 22.5 km/h 51% 0.0 mm SCT
14:15 18.9 °C 8.8 °C 1016.8 hPa WNW 12.9 km/h 25.7 km/h 52% 0.0 mm SCT
14:20 18.9 °C 8.5 °C 1016.8 hPa WNW 12.9 km/h 20.9 km/h 51% 0.0 mm SCT
14:25 18.9 °C 8.2 °C 1016.8 hPa WNW 14.5 km/h 29.0 km/h 50% 0.0 mm SCT
14:30 18.9 °C 8.2 °C 1016.8 hPa WNW 14.5 km/h 24.1 km/h 50% 0.0 mm SCT
14:35 18.9 °C 8.2 °C 1016.8 hPa WNW 12.9 km/h 19.3 km/h 50% 0.0 mm SCT
14:40 19.1 °C 8.1 °C 1016.8 hPa WNW 12.9 km/h 27.4 km/h 49% 0.0 mm SCT
14:45 19.0 °C 8.3 °C 1016.8 hPa WNW 12.9 km/h 27.4 km/h 50% 0.0 mm SCT
14:50 18.9 °C 7.9 °C 1016.8 hPa WNW 12.9 km/h 24.1 km/h 49% 0.0 mm SCT
14:55 19.1 °C 8.1 °C 1016.7 hPa WNW 12.9 km/h 24.1 km/h 49% 0.0 mm SCT
15:00 19.2 °C 8.2 °C 1016.7 hPa West 12.9 km/h 24.1 km/h 49% 0.0 mm SCT
15:05 19.4 °C 8.1 °C 1016.7 hPa West 14.5 km/h 25.7 km/h 48% 0.0 mm SCT
15:10 19.4 °C 8.1 °C 1016.6 hPa West 14.5 km/h 24.1 km/h 48% 0.0 mm SCT
15:15 19.6 °C 8.0 °C 1016.6 hPa West 14.5 km/h 24.1 km/h 47% 0.0 mm SCT
15:20 19.7 °C 8.1 °C 1016.6 hPa West 14.5 km/h 22.5 km/h 47% 0.0 mm FEW
15:25 19.5 °C 7.9 °C 1016.6 hPa WNW 11.3 km/h 22.5 km/h 47% 0.0 mm FEW
15:30 19.4 °C 8.1 °C 1016.6 hPa WNW 11.3 km/h 20.9 km/h 48% 0.0 mm FEW
15:35 19.3 °C 8.0 °C 1016.6 hPa WNW 11.3 km/h 20.9 km/h 48% 0.0 mm FEW
15:40 19.4 °C 8.1 °C 1016.6 hPa WNW 11.3 km/h 12.9 km/h 48% 0.0 mm FEW
15:45 19.7 °C 8.1 °C 1016.6 hPa West 8.0 km/h 24.1 km/h 47% 0.0 mm FEW
15:50 19.8 °C 7.8 °C 1016.6 hPa WNW 8.0 km/h 27.4 km/h 46% 0.0 mm FEW
15:55 19.8 °C 7.5 °C 1016.5 hPa West 13.7 km/h 18.5 km/h 45% 0.0 mm FEW
16:00 19.8 °C 7.8 °C 1016.5 hPa West 12.9 km/h 17.7 km/h 46% 0.0 mm SCT
16:05 20.1 °C 8.4 °C 1016.5 hPa WNW 11.3 km/h 19.3 km/h 47% 0.0 mm FEW
16:10 20.2 °C 8.5 °C 1016.3 hPa NW 11.3 km/h 14.5 km/h 47% 0.0 mm FEW
16:15 20.3 °C 8.6 °C 1016.3 hPa NW 9.7 km/h 19.3 km/h 47% 0.0 mm FEW
16:20 20.3 °C 7.9 °C 1016.3 hPa WNW 9.7 km/h 16.1 km/h 45% 0.0 mm FEW
16:25 20.6 °C 8.2 °C 1016.5 hPa West 9.7 km/h 20.9 km/h 45% 0.0 mm FEW
16:30 20.7 °C 8.0 °C 1016.5 hPa West 9.7 km/h 25.7 km/h 44% 0.0 mm FEW
16:35 20.8 °C 8.1 °C 1016.5 hPa West 11.3 km/h 22.5 km/h 44% 0.0 mm FEW
16:40 20.8 °C 8.1 °C 1016.6 hPa WSW 11.3 km/h 24.1 km/h 44% 0.0 mm FEW
16:45 20.9 °C 8.2 °C 1016.6 hPa West 11.3 km/h 19.3 km/h 44% 0.0 mm FEW
16:50 20.9 °C 8.2 °C 1016.6 hPa West 11.3 km/h 16.1 km/h 44% 0.0 mm FEW
16:55 21.0 °C 7.9 °C 1016.7 hPa WSW 9.7 km/h 16.1 km/h 43% 0.0 mm FEW
17:00 21.0 °C 7.9 °C 1016.7 hPa WSW 9.7 km/h 19.3 km/h 43% 0.0 mm FEW
17:05 20.9 °C 7.8 °C 1016.7 hPa West 9.7 km/h 22.5 km/h 43% 0.0 mm FEW
17:10 20.8 °C 7.8 °C 1016.9 hPa WNW 9.7 km/h 24.1 km/h 43% 0.0 mm FEW
17:15 20.9 °C 8.2 °C 1016.9 hPa WNW 12.9 km/h 24.1 km/h 44% 0.0 mm FEW
17:20 20.9 °C 8.2 °C 1016.9 hPa West 12.9 km/h 25.7 km/h 44% 0.0 mm FEW
17:25 20.9 °C 7.8 °C 1017.0 hPa West 11.3 km/h 22.5 km/h 43% 0.0 mm FEW
17:30 20.9 °C 7.2 °C 1017.0 hPa WNW 11.3 km/h 30.6 km/h 41% 0.0 mm FEW
17:35 21.1 °C 7.3 °C 1017.0 hPa WNW 14.5 km/h 25.7 km/h 41% 0.0 mm FEW
17:40 20.9 °C 7.5 °C 1017.3 hPa WNW 14.5 km/h 24.1 km/h 42% 0.0 mm FEW
17:45 20.9 °C 7.8 °C 1017.3 hPa NW 12.9 km/h 22.5 km/h 43% 0.0 mm FEW
17:50 20.9 °C 7.5 °C 1017.3 hPa NW 12.9 km/h 24.1 km/h 42% 0.0 mm FEW
17:55 20.9 °C 7.8 °C 1017.4 hPa NW 11.3 km/h 22.5 km/h 43% 0.0 mm FEW
18:00 20.9 °C 7.8 °C 1017.4 hPa NW 11.3 km/h 12.9 km/h 43% 0.0 mm FEW
18:05 20.9 °C 7.9 °C 1017.4 hPa NW 8.0 km/h 16.1 km/h 43% 0.0 mm FEW
18:10 20.9 °C 7.9 °C 1017.5 hPa NW 8.0 km/h 16.1 km/h 43% 0.0 mm FEW
18:15 21.0 °C 8.3 °C 1017.5 hPa NW 9.7 km/h 11.3 km/h 44% 0.0 mm FEW
18:20 21.0 °C 8.3 °C 1017.5 hPa NNW 9.7 km/h 9.7 km/h 44% 0.0 mm FEW
18:25 21.0 °C 8.3 °C 1017.6 hPa NNW 4.8 km/h 12.9 km/h 44% 0.0 mm FEW
18:30 20.9 °C 8.2 °C 1017.6 hPa NW 4.8 km/h 11.3 km/h 44% 0.0 mm FEW
18:35 20.9 °C 8.2 °C 1017.6 hPa NW 8.0 km/h 9.7 km/h 44% 0.0 mm FEW
18:40 20.9 °C 7.8 °C 1017.8 hPa WNW 8.0 km/h 19.3 km/h 43% 0.0 mm FEW
18:45 20.8 °C 7.8 °C 1017.8 hPa WNW 8.0 km/h 14.5 km/h 43% 0.0 mm FEW
18:50 20.8 °C 7.8 °C 1017.8 hPa WNW 8.0 km/h 8.0 km/h 43% 0.0 mm CLR
18:55 20.8 °C 7.7 °C 1017.8 hPa WNW 8.0 km/h 9.7 km/h 43% 0.0 mm CLR
19:00 20.7 °C 7.7 °C 1017.8 hPa WNW 8.0 km/h 9.7 km/h 43% 0.0 mm FEW
19:05 20.6 °C 7.9 °C 1017.8 hPa WNW 8.0 km/h 11.3 km/h 44% 0.0 mm CLR
19:10 20.4 °C 7.8 °C 1017.9 hPa WNW 8.0 km/h 11.3 km/h 44% 0.0 mm CLR
19:15 20.4 °C 7.4 °C 1017.9 hPa WNW 8.0 km/h 16.1 km/h 43% 0.0 mm CLR
19:20 20.4 °C 7.4 °C 1017.9 hPa WNW 8.0 km/h 14.5 km/h 43% 0.0 mm CLR
19:25 20.3 °C 7.3 °C 1018.1 hPa WNW 8.0 km/h 19.3 km/h 43% 0.0 mm CLR
19:30 20.3 °C 7.3 °C 1018.1 hPa WNW 8.0 km/h 14.5 km/h 43% 0.0 mm CLR
19:35 20.2 °C 7.2 °C 1018.1 hPa WNW 9.7 km/h 14.5 km/h 43% 0.0 mm CLR
19:40 20.2 °C 7.2 °C 1018.2 hPa WNW 9.7 km/h 19.3 km/h 43% 0.0 mm CLR
19:45 20.2 °C 7.2 °C 1018.2 hPa WNW 9.7 km/h 22.5 km/h 43% 0.0 mm CLR
19:50 20.2 °C 7.2 °C 1018.2 hPa WNW 9.7 km/h 22.5 km/h 43% 0.0 mm CLR
19:55 20.2 °C 7.2 °C 1018.5 hPa WNW 11.3 km/h 16.1 km/h 43% 0.0 mm CLR
20:00 20.1 °C 7.1 °C 1018.5 hPa WNW 11.3 km/h 12.9 km/h 43% 0.0 mm CLR
20:05 19.9 °C 7.3 °C 1018.5 hPa WNW 8.0 km/h 9.7 km/h 44% 0.0 mm CLR
20:10 19.8 °C 7.2 °C 1018.7 hPa West 8.0 km/h 8.0 km/h 44% 0.0 mm CLR
20:15 19.7 °C 7.4 °C 1018.7 hPa WSW 3.2 km/h 8.0 km/h 45% 0.0 mm CLR
20:20 19.7 °C 7.7 °C 1018.7 hPa SSW 3.2 km/h 8.0 km/h 46% 0.0 mm CLR
20:25 19.7 °C 7.7 °C 1019.0 hPa SSW 3.2 km/h 8.0 km/h 46% 0.0 mm CLR
20:30 19.6 °C 7.7 °C 1019.0 hPa SSW 3.2 km/h 6.4 km/h 46% 0.0 mm CLR
20:35 19.6 °C 7.7 °C 1019.0 hPa SSW 3.2 km/h 11.3 km/h 46% 0.0 mm CLR
20:40 19.6 °C 7.9 °C 1019.2 hPa SW 3.2 km/h 9.7 km/h 47% 0.0 mm CLR
20:45 19.4 °C 8.1 °C 1019.2 hPa WSW 4.8 km/h 8.0 km/h 48% 0.0 mm CLR
20:50 19.2 °C 7.9 °C 1019.2 hPa WSW 4.8 km/h 8.0 km/h 48% 0.0 mm CLR
20:55 18.9 °C 8.0 °C 1019.5 hPa WSW 3.2 km/h 9.7 km/h 49% 0.0 mm CLR
21:00 18.9 °C 7.9 °C 1019.5 hPa SW 3.2 km/h 8.0 km/h 49% 0.0 mm CLR
21:05 18.9 °C 7.9 °C 1019.5 hPa SW 4.8 km/h 9.7 km/h 49% 0.0 mm CLR
21:10 18.9 °C 8.0 °C 1019.6 hPa SW 4.8 km/h 9.7 km/h 49% 0.0 mm CLR
21:15 19.0 °C 8.1 °C 1019.6 hPa SW 6.4 km/h 9.3 km/h 49% 0.0 mm CLR
21:20 18.9 °C 7.7 °C 1019.6 hPa SW 8.0 km/h 11.3 km/h 48% 0.0 mm CLR
21:25 18.9 °C 8.0 °C 1019.8 hPa WSW 8.0 km/h 11.3 km/h 49% 0.0 mm CLR
21:30 18.9 °C 8.2 °C 1019.8 hPa WSW 8.0 km/h 9.7 km/h 50% 0.0 mm CLR
21:35 18.7 °C 8.1 °C 1019.8 hPa WSW 8.0 km/h 9.7 km/h 50% 0.0 mm CLR
21:40 18.7 °C 8.1 °C 1019.8 hPa WSW 8.0 km/h 14.5 km/h 50% 0.0 mm CLR
21:45 18.6 °C 8.3 °C 1019.8 hPa SW 8.0 km/h 9.7 km/h 51% 0.0 mm CLR
21:50 18.5 °C 8.7 °C 1019.8 hPa South 8.0 km/h 9.7 km/h 53% 0.0 mm CLR
21:55 17.7 °C 8.8 °C 1020.1 hPa SE 8.0 km/h 12.9 km/h 56% 0.0 mm CLR
22:02 16.9 °C 8.6 °C 1020.1 hPa SSE 8.7 km/h 13.0 km/h 58% 0.0 mm CLR
22:05 16.9 °C 8.6 °C 1020.1 hPa SE 9.7 km/h 12.9 km/h 58% 0.0 mm CLR
22:10 17.1 °C 8.5 °C 1020.4 hPa SSE 8.7 km/h 9.3 km/h 57% 0.0 mm CLR
22:15 17.1 °C 8.6 °C 1020.4 hPa SSE 8.0 km/h 11.3 km/h 57% 0.0 mm CLR
22:20 17.2 °C 8.3 °C 1020.4 hPa SSE 8.0 km/h 11.3 km/h 56% 0.0 mm CLR
22:25 17.4 °C 8.5 °C 1020.4 hPa South 8.0 km/h 12.9 km/h 56% 0.0 mm CLR
22:30 17.6 °C 8.4 °C 1020.4 hPa SSW 8.0 km/h 9.7 km/h 55% 0.0 mm CLR
22:35 17.8 °C 8.4 °C 1020.4 hPa SW 7.6 km/h 9.3 km/h 54% 0.0 mm CLR
22:40 17.9 °C 8.4 °C 1020.5 hPa West 7.6 km/h 13.0 km/h 54% 0.0 mm CLR
22:45 17.8 °C 8.4 °C 1020.5 hPa West 8.0 km/h 12.9 km/h 54% 0.0 mm CLR
22:50 17.7 °C 8.3 °C 1020.5 hPa West 8.0 km/h 22.5 km/h 54% 0.0 mm CLR
22:55 17.9 °C 8.2 °C 1020.5 hPa West 9.7 km/h 22.5 km/h 53% 0.0 mm CLR
23:00 18.2 °C 8.2 °C 1020.5 hPa West 9.7 km/h 19.3 km/h 52% 0.0 mm CLR
23:05 18.3 °C 8.3 °C 1020.5 hPa West 9.7 km/h 14.5 km/h 52% 0.0 mm CLR
23:10 18.3 °C 8.3 °C 1020.6 hPa West 9.7 km/h 16.1 km/h 52% 0.0 mm CLR
23:15 18.2 °C 8.2 °C 1020.6 hPa West 8.0 km/h 12.9 km/h 52% 0.0 mm CLR
23:20 18.1 °C 8.4 °C 1020.6 hPa WSW 8.0 km/h 11.3 km/h 53% 0.0 mm CLR
23:25 18.1 °C 8.4 °C 1020.9 hPa SW 8.0 km/h 9.7 km/h 53% 0.0 mm CLR
23:30 18.0 °C 8.3 °C 1020.9 hPa SW 8.0 km/h 12.9 km/h 53% 0.0 mm CLR
23:35 18.1 °C 8.3 °C 1020.9 hPa SW 8.0 km/h 14.5 km/h 53% 0.0 mm CLR
23:40 18.1 °C 8.3 °C 1021.0 hPa SW 8.0 km/h 9.7 km/h 53% 0.0 mm CLR
23:45 18.1 °C 8.3 °C 1021.0 hPa SSW 8.0 km/h 11.3 km/h 53% 0.0 mm CLR
23:50 17.9 °C 8.2 °C 1021.0 hPa SSW 8.0 km/h 12.9 km/h 53% 0.0 mm CLR
23:55 17.9 °C 8.2 °C 1021.2 hPa SW 8.0 km/h 14.5 km/h 53% 0.0 mm CLR
Murcia-Puente Tocinos, España
Compliments of Weather Underground - 2.75 mb

La estación de MeteoMurcia.com, publica sus datos en los siguientes proyectos:

Weather Underground PWS IMURCIAP2 Meteoclimatic www.awekas.at

W3Counter
Web Analytics